• en France
  • Liste des pays
  • À 7 jours
  • Température de l'eau
  • Carte satellitaire
  • Carte météo
  • Widgets météo
  • user-avatar
    Se connecter

    Météo par heure à Cumiluh

    Ce jour, 17 Octobre, Mercredi

    Heure Température Précipitation Vent Pression Humidité
    00:00 +5°C° 0 mm 1 m/s 598 mmHg 85%
    01:00 +4°C° 0 mm 1 m/s 598 mmHg 84%
    02:00 +4°C° 0 mm 1 m/s 598 mmHg 83%
    03:00 +4°C° 0 mm 1 m/s 598 mmHg 81%
    04:00 +4°C° 0 mm 1 m/s 598 mmHg 79%
    05:00 +4°C° 0 mm 1 m/s 597 mmHg 76%
    06:00 +4°C° 0 mm 1 m/s 597 mmHg 74%
    07:00 +6°C° 0 mm 1 m/s 598 mmHg 66%
    08:00 +8°C° 0 mm 1 m/s 599 mmHg 59%
    09:00 +10°C° 0 mm 1 m/s 600 mmHg 52%
    10:00 +11°C° 0 mm 1 m/s 600 mmHg 50%
    11:00 +12°C° 0 mm 2 m/s 600 mmHg 48%
    12:00 +12°C° 0 mm 2 m/s 600 mmHg 46%
    13:00 +12°C° 0 mm 2 m/s 600 mmHg 48%
    14:00 +12°C° 0 mm 2 m/s 600 mmHg 50%
    15:00 +12°C° 0 mm 2 m/s 599 mmHg 52%
    16:00 +9°C° 0 mm 2 m/s 599 mmHg 62%
    17:00 +8°C° 0 mm 1 m/s 598 mmHg 73%
    18:00 +6°C° 0 mm 1 m/s 597 mmHg 83%
    19:00 +6°C° 0 mm 1 m/s 597 mmHg 81%
    20:00 +6°C° 0 mm 1 m/s 597 mmHg 79%
    21:00 +5°C° 0 mm 1 m/s 597 mmHg 77%
    22:00 +5°C° 0 mm 1 m/s 596 mmHg 73%
    23:00 +5°C° 0 mm 1 m/s 596 mmHg 69%

    Demain, 18 Octobre, Jeudi

    Heure Température Précipitation Vent Pression Humidité
    00:00 +5°C° 0 mm 1 m/s 596 mmHg 65%
    01:00 +5°C° 0 mm 1 m/s 596 mmHg 61%
    02:00 +5°C° 0 mm 1 m/s 596 mmHg 57%
    03:00 +5°C° 0 mm 1 m/s 596 mmHg 53%
    04:00 +5°C° 0 mm 1 m/s 596 mmHg 47%
    05:00 +4°C° 0 mm 1 m/s 595 mmHg 42%
    06:00 +4°C° 0 mm 1 m/s 595 mmHg 36%
    07:00 +7°C° 0 mm 1 m/s 596 mmHg 34%
    08:00 +9°C° 0 mm 1 m/s 597 mmHg 31%
    09:00 +11°C° 0 mm 1 m/s 599 mmHg 28%
    10:00 +12°C° 0 mm 1 m/s 599 mmHg 28%
    11:00 +13°C° 0 mm 1 m/s 599 mmHg 28%
    12:00 +14°C° 0 mm 2 m/s 599 mmHg 28%
    13:00 +14°C° 0 mm 2 m/s 599 mmHg 31%
    14:00 +13°C° 0 mm 2 m/s 599 mmHg 34%
    15:00 +13°C° 0 mm 2 m/s 599 mmHg 36%
    16:00 +11°C° 0 mm 1 m/s 598 mmHg 47%
    17:00 +9°C° 0 mm 1 m/s 597 mmHg 57%
    18:00 +7°C° 0 mm 1 m/s 596 mmHg 67%
    19:00 +6°C° 0 mm 1 m/s 596 mmHg 65%
    20:00 +6°C° 0 mm 1 m/s 596 mmHg 63%
    21:00 +6°C° 0 mm 1 m/s 596 mmHg 61%
    22:00 +5°C° 0 mm 1 m/s 596 mmHg 61%
    23:00 +5°C° 0 mm 1 m/s 596 mmHg 61%

    Après-demain, 19 Octobre, Vendredi

    Heure Température Précipitation Vent Pression Humidité
    00:00 +5°C° 0 mm 1 m/s 595 mmHg 61%
    01:00 +5°C° 0 mm 1 m/s 595 mmHg 63%
    02:00 +4°C° 0 mm 1 m/s 595 mmHg 64%
    03:00 +4°C° 0 mm 1 m/s 595 mmHg 65%
    04:00 +4°C° 0 mm 1 m/s 595 mmHg 65%
    05:00 +4°C° 0 mm 1 m/s 595 mmHg 64%
    06:00 +4°C° 0 mm 1 m/s 595 mmHg 64%
    07:00 +6°C° 0 mm 1 m/s 596 mmHg 56%
    08:00 +8°C° 0 mm 1 m/s 597 mmHg 49%
    09:00 +11°C° 0 mm 1 m/s 598 mmHg 42%
    10:00 +12°C° 0 mm 1 m/s 598 mmHg 40%
    11:00 +13°C° 0 mm 1 m/s 598 mmHg 37%
    12:00 +14°C° 0 mm 1 m/s 598 mmHg 35%
    13:00 +14°C° 0 mm 1 m/s 598 mmHg 37%
    14:00 +13°C° 0 mm 1 m/s 598 mmHg 39%
    15:00 +13°C° 0 mm 1 m/s 598 mmHg 41%
    16:00 +11°C° 0 mm 1 m/s 597 mmHg 50%
    17:00 +9°C° 0 mm 1 m/s 596 mmHg 59%
    18:00 +7°C° 0 mm 1 m/s 595 mmHg 68%
    19:00 +7°C° 0 mm 1 m/s 595 mmHg 70%
    20:00 +6°C° 0 mm 1 m/s 595 mmHg 71%
    21:00 +6°C° 0 mm 1 m/s 595 mmHg 72%
    22:00 +5°C° 0 mm 2 m/s 594 mmHg 74%
    23:00 +4°C° 0 mm 2 m/s 594 mmHg 76%

    20 Octobre, Samedi

    Heure Température Précipitation Vent Pression Humidité
    00:00 +4°C° 0 mm 2 m/s 594 mmHg 77%
    01:00 +4°C° 0 mm 2 m/s 594 mmHg 75%
    02:00 +4°C° 0 mm 2 m/s 593 mmHg 74%
    03:00 +4°C° 0 mm 2 m/s 593 mmHg 72%
    04:00 +4°C° 0 mm 2 m/s 593 mmHg 67%
    05:00 +4°C° 0 mm 2 m/s 593 mmHg 62%
    06:00 +3°C° 0 mm 2 m/s 593 mmHg 57%
    07:00 +6°C° 0 mm 2 m/s 594 mmHg 50%
    08:00 +9°C° 0 mm 1 m/s 595 mmHg 42%
    09:00 +12°C° 0 mm 1 m/s 596 mmHg 34%
    10:00 +13°C° 0 mm 1 m/s 596 mmHg 33%
    11:00 +14°C° 0 mm 2 m/s 596 mmHg 31%
    12:00 +15°C° 0 mm 2 m/s 597 mmHg 29%
    13:00 +15°C° 0 mm 2 m/s 596 mmHg 30%
    14:00 +14°C° 0 mm 2 m/s 596 mmHg 31%
    15:00 +14°C° 0 mm 2 m/s 596 mmHg 33%
    16:00 +12°C° 0 mm 1 m/s 595 mmHg 38%
    17:00 +10°C° 0 mm 1 m/s 594 mmHg 44%
    18:00 +8°C° 0 mm 1 m/s 594 mmHg 49%
    19:00 +8°C° 0 mm 1 m/s 594 mmHg 48%
    20:00 +8°C° 0 mm 1 m/s 594 mmHg 47%
    21:00 +7°C° 0 mm 1 m/s 594 mmHg 46%
    22:00 +7°C° 0 mm 1 m/s 593 mmHg 46%
    23:00 +7°C° 0 mm 1 m/s 593 mmHg 46%

    21 Octobre, Dimanche

    Heure Température Précipitation Vent Pression Humidité
    00:00 +7°C° 0 mm 1 m/s 593 mmHg 46%
    01:00 +6°C° 0 mm 1 m/s 593 mmHg 47%
    02:00 +6°C° 0 mm 1 m/s 593 mmHg 47%
    03:00 +6°C° 0 mm 1 m/s 593 mmHg 48%
    04:00 +6°C° 0 mm 1 m/s 593 mmHg 48%
    05:00 +6°C° 0 mm 1 m/s 592 mmHg 49%
    06:00 +6°C° 0 mm 1 m/s 592 mmHg 50%
    07:00 +8°C° 0 mm 1 m/s 593 mmHg 45%
    08:00 +10°C° 0 mm 1 m/s 594 mmHg 41%
    09:00 +12°C° 0 mm 1 m/s 595 mmHg 37%
    10:00 +13°C° 0 mm 1 m/s 596 mmHg 37%
    11:00 +14°C° 0 mm 1 m/s 596 mmHg 36%
    12:00 +15°C° 0 mm 2 m/s 596 mmHg 36%
    13:00 +14°C° 0 mm 2 m/s 596 mmHg 37%
    14:00 +14°C° 0 mm 1 m/s 595 mmHg 39%
    15:00 +14°C° 0 mm 1 m/s 595 mmHg 40%
    16:00 +12°C° 0 mm 1 m/s 594 mmHg 46%
    17:00 +10°C° 0 mm 1 m/s 594 mmHg 52%
    18:00 +8°C° 0 mm 0 m/s 593 mmHg 57%
    19:00 +9°C° 0 mm 1 m/s 593 mmHg 58%
    20:00 +8°C° 0 mm 1 m/s 593 mmHg 58%
    21:00 +8°C° 0 mm 1 m/s 593 mmHg 59%
    22:00 +8°C° 0 mm 1 m/s 593 mmHg 59%
    23:00 +8°C° 0 mm 1 m/s 593 mmHg 60%

    22 Octobre, Lundi

    Heure Température Précipitation Vent Pression Humidité
    00:00 +7°C° 0 mm 1 m/s 592 mmHg 61%
    01:00 +7°C° 0 mm 1 m/s 592 mmHg 60%
    02:00 +7°C° 0 mm 1 m/s 592 mmHg 60%
    03:00 +7°C° 0 mm 1 m/s 592 mmHg 59%
    04:00 +7°C° 0 mm 1 m/s 592 mmHg 59%
    05:00 +6°C° 0 mm 1 m/s 592 mmHg 59%
    06:00 +6°C° 0 mm 1 m/s 592 mmHg 59%
    07:00 +8°C° 0 mm 1 m/s 593 mmHg 55%
    08:00 +10°C° 0 mm 1 m/s 594 mmHg 50%
    09:00 +11°C° 0 mm 1 m/s 595 mmHg 46%
    10:00 +12°C° 0 mm 1 m/s 595 mmHg 45%
    11:00 +13°C° 0 mm 2 m/s 596 mmHg 43%
    12:00 +14°C° 0 mm 2 m/s 596 mmHg 42%
    13:00 +14°C° 0 mm 2 m/s 596 mmHg 44%
    14:00 +13°C° 0 mm 2 m/s 596 mmHg 45%
    15:00 +13°C° 0 mm 2 m/s 595 mmHg 47%
    16:00 +12°C° 0 mm 1 m/s 595 mmHg 53%
    17:00 +10°C° 0 mm 1 m/s 595 mmHg 58%
    18:00 +9°C° 0 mm 1 m/s 594 mmHg 64%
    19:00 +8°C° 0.1 mm 1 m/s 594 mmHg 64%
    20:00 +8°C° 0.1 mm 1 m/s 594 mmHg 64%
    21:00 +8°C° 0.1 mm 1 m/s 594 mmHg 64%
    22:00 +7°C° 0 mm 1 m/s 594 mmHg 65%
    23:00 +7°C° 0 mm 1 m/s 594 mmHg 65%
    Voir plus